Wind_Speed
32 31 31 33 33 34 30 31 28 24 21 24 25 34 30 21 19 19 19 18 17 16 16 18 19 20 21 21 20 20 19 18 17 17 18 18 19 20 21 22 23 24 26
29 33 34 31 32 33 32 32 30 28 28 32 27 29 32 23 20 20 20 19 19 17 18 19 21 21 21 20 19 19 19 18 18 18 18 18 18 19 20 21 22 23 24
38 34 32 33 33 32 32 33 28 29 31 32 32 30 28 23 18 22 20 23 19 18 19 20 21 21 21 20 19 18 18 18 19 19 19 19 20 20 21 22 23 24 25
31 29 32 33 33 32 33 34 30 28 28 33 30 27 27 23 24 22 27 22 19 18 20 19 21 21 21 21 20 18 18 18 19 19 20 21 21 21 22 23 25 26 27
34 30 25 27 30 29 31 30 33 31 31 33 33 31 29 25 23 22 25 23 19 18 21 20 20 21 20 20 20 19 20 19 20 20 20 21 21 21 22 22 23 25 25
31 30 29 27 27 31 32 33 34 29 28 31 30 30 30 26 25 27 27 23 20 19 22 21 21 21 20 19 20 19 19 19 19 19 20 20 20 20 20 20 20 20 21
29 30 44 32 34 31 36 34 29 32 30 32 32 29 26 23 19 25 27 23 20 21 22 21 19 20 19 20 19 19 19 19 18 18 18 18 18 18 17 17 17 17 18
34 34 35 37 32 37 33 32 30 33 34 32 32 28 29 32 27 30 27 22 20 21 23 23 20 20 19 19 18 18 18 18 18 18 18 17 16 16 15 16 16 16 17
34 37 43 39 35 34 33 30 31 32 33 31 29 30 28 28 31 30 26 22 22 23 23 23 21 23 19 19 19 18 17 17 17 17 17 17 17 16 16 16 16 17 17
38 38 39 43 37 35 36 30 30 33 34 34 30 33 29 27 30 28 24 22 23 23 23 21 21 21 19 18 18 17 17 17 18 17 18 18 18 18 18 18 18 19 19
43 40 42 40 38 38 37 34 35 37 34 36 33 34 31 30 28 26 25 24 24 23 22 22 19 22 18 17 18 17 17 17 17 17 17 18 18 18 18 18 17 17 17
46 45 45 44 39 40 40 36 37 37 36 38 35 38 33 32 29 27 26 24 23 22 22 21 21 22 19 16 17 16 16 17 17 18 18 18 18 17 16 16 16 16 16
50 49 49 46 43 41 41 40 39 40 39 40 40 38 37 33 30 30 28 25 24 23 23 22 23 20 18 16 16 16 17 17 18 18 19 18 18 16 16 17 17 17 17
50 51 52 49 46 44 43 43 43 41 42 43 39 38 38 34 32 32 27 26 24 23 23 23 22 19 19 15 16 16 17 18 18 19 19 18 18 17 17 17 17 16 16
59 53 52 51 51 48 47 45 45 44 45 43 39 40 37 36 30 31 27 25 24 23 22 20 21 18 19 18 16 14 19 18 18 19 19 19 19 18 18 18 18 17 17
54 49 57 53 58 53 51 48 48 46 44 44 42 40 35 35 30 30 29 25 25 23 22 20 19 17 18 18 17 15 17 17 19 20 20 19 19 20 20 19 19 18 17
52 50 52 59 51 56 54 52 49 47 44 44 44 39 38 38 28 29 29 26 25 24 21 18 17 17 16 18 17 18 17 17 20 21 21 20 20 20 21 21 20 19 17
49 45 47 53 63 61 57 54 51 50 46 46 45 41 47 36 27 30 30 25 22 26 17 15 16 17 16 17 17 18 20 14 19 21 21 22 21 21 22 22 21 20 18
41 50 54 51 56 57 62 48 50 48 49 48 45 43 41 24 31 30 28 24 25 22 19 17 17 17 17 17 18 18 21 21 18 21 22 23 23 21 22 23 22 21 19
47 46 44 47 57 53 53 46 51 51 48 48 41 41 26 28 28 29 25 24 22 21 19 18 17 17 18 19 18 18 19 21 20 21 22 22 24 23 21 23 24 22 20
48 43 42 37 53 49 48 44 48 48 48 43 41 28 28 30 31 26 24 24 24 21 19 19 19 19 19 18 19 19 18 21 21 22 22 22 24 23 21 22 23 23 22
38 43 41 41 48 51 44 47 50 56 42 43 34 32 33 30 27 26 25 24 22 21 20 20 20 18 18 19 20 19 19 19 19 22 23 22 24 22 23 23 24 24 24
37 36 41 44 46 51 49 53 42 38 41 34 31 31 30 29 28 27 27 27 24 24 23 22 19 19 20 20 20 20 20 21 18 20 23 23 23 22 21 22 24 24 25
29 37 45 46 42 41 38 37 37 41 35 32 32 32 29 26 26 28 29 25 24 24 21 19 19 19 20 20 20 19 20 21 19 19 24 25 23 23 25 22 23 23 24
29 31 32 32 34 35 38 40 44 38 34 32 32 26 25 26 29 31 26 25 26 24 20 22 22 21 20 19 19 20 18 21 22 18 22 26 24 24 26 26 25 26 25
27 29 31 33 39 44 45 39 33 34 31 30 27 28 27 29 30 29 26 26 24 23 24 23 22 22 20 19 18 18 19 21 24 21 21 25 25 24 26 27 27 27 27
Wind_Direction
243 238 236 232 238 236 248 253 258 251 239 258 262 256 270 258 253 256 256 259 267 277 287 294 297 299 303 304 302 301 299 295 291 287 284 282 280 278 276 274 271 269 269
253 240 237 234 236 239 247 254 255 242 249 256 264 259 263 246 241 255 250 259 268 278 288 294 299 302 304 304 301 299 296 294 292 290 289 287 285 284 282 280 277 275 273
251 242 235 237 238 242 248 253 255 255 251 256 254 259 259 246 234 244 255 259 266 277 284 291 297 302 303 299 298 297 292 291 291 291 289 288 286 285 284 283 282 280 278
248 246 230 237 240 245 251 254 257 259 253 244 248 244 245 240 239 234 253 254 263 275 283 291 297 296 297 299 297 293 292 293 295 295 295 295 294 291 288 284 281 280 278
247 243 235 243 243 256 240 251 259 257 254 240 236 230 232 237 244 238 249 250 260 276 281 288 290 291 290 289 291 293 293 296 296 297 298 299 297 295 292 288 285 283 281
236 238 247 245 240 240 250 259 261 258 250 233 230 229 223 230 252 240 245 256 261 269 281 285 285 286 285 287 289 292 295 296 297 299 299 300 301 300 298 297 293 292 290
244 235 236 234 247 241 257 259 252 251 239 224 224 228 227 240 239 244 245 253 267 276 280 279 282 282 282 285 289 295 297 298 301 304 306 306 304 302 300 300 299 298 298
241 244 237 239 239 252 252 255 252 243 231 227 224 222 231 240 229 236 245 254 265 273 277 280 276 274 280 284 287 289 292 295 300 304 305 305 304 304 308 306 304 304 304
247 250 240 240 241 251 250 251 246 239 232 228 223 230 234 234 230 236 245 254 263 268 273 275 276 278 280 280 282 286 291 297 302 304 307 307 305 304 304 302 302 300 301
249 250 253 239 241 249 247 246 240 234 229 225 224 226 230 235 236 240 245 252 261 264 266 269 272 274 277 282 283 285 290 296 300 304 306 306 304 304 303 303 301 302 303
250 250 252 246 242 246 241 241 234 232 227 229 222 235 234 232 232 237 247 256 257 261 263 265 266 271 274 274 275 278 283 290 296 300 302 303 302 302 301 300 301 303 304
244 245 248 245 244 243 237 240 233 230 228 226 227 235 233 235 237 241 250 254 258 259 262 263 260 267 272 266 270 275 283 288 294 300 303 303 301 301 300 301 306 307 307
242 242 243 241 242 238 237 237 232 232 227 224 228 240 234 234 237 241 246 250 253 257 259 257 261 262 265 269 268 276 282 288 295 299 301 302 301 300 300 302 303 304 303
251 247 243 240 240 237 236 236 233 229 228 225 229 230 232 229 233 244 244 247 248 250 254 255 257 262 264 259 263 275 281 287 293 297 298 298 297 298 298 298 297 298 298
249 245 251 242 238 235 236 235 234 229 226 228 226 228 229 229 232 241 248 248 249 248 248 253 257 260 262 258 262 271 282 287 292 297 300 300 297 296 294 293 292 293 296
251 240 245 242 240 232 234 232 232 227 224 228 227 221 224 232 227 236 247 248 245 243 248 250 256 252 252 260 267 273 279 289 295 297 297 297 295 294 291 288 287 289 293
251 247 253 240 239 225 232 229 229 225 223 223 224 220 222 223 222 236 242 240 240 243 247 250 245 248 247 259 272 279 285 295 298 296 295 293 292 289 287 285 284 286 290
246 255 251 253 236 239 222 224 223 221 218 219 217 215 223 218 218 227 236 237 237 251 255 247 244 248 251 263 275 278 282 287 288 292 292 290 286 286 286 285 284 285 288
242 251 244 250 233 242 224 213 217 215 213 213 214 216 221 205 221 225 231 230 238 247 249 247 246 251 257 264 268 276 286 295 294 292 291 290 290 287 288 288 286 285 287
260 260 246 248 234 226 227 215 215 213 215 213 206 219 203 216 223 225 227 231 237 241 242 242 246 250 256 260 269 274 283 290 292 290 290 291 292 293 290 289 287 288 289
238 249 252 249 239 225 217 210 215 214 212 209 216 194 210 215 216 218 222 226 230 231 233 240 244 246 253 263 268 272 281 286 291 293 292 293 293 294 291 287 288 289 291
240 236 243 243 233 221 205 206 208 216 215 197 183 197 210 213 216 221 225 231 232 233 235 237 240 246 255 261 267 276 280 281 289 294 295 296 296 297 298 295 294 295 295
234 236 230 231 230 223 208 211 215 200 191 183 195 208 211 213 215 220 223 228 229 231 234 238 243 248 254 257 264 272 278 283 289 286 292 294 295 298 294 294 294 296 297
232 232 224 224 226 219 218 211 201 190 184 191 203 208 211 216 222 225 231 237 240 241 242 244 249 253 254 258 266 271 275 283 285 293 293 294 298 298 295 292 292 295 296
217 208 207 210 215 210 201 196 191 187 190 195 205 208 214 220 224 229 233 237 235 236 237 238 244 250 253 259 266 272 279 283 288 291 292 297 302 302 300 300 299 299 299
197 195 196 194 191 190 188 183 185 191 194 201 205 212 218 223 227 236 234 236 229 231 238 243 247 251 256 259 265 278 284 287 291 297 294 296 300 301 299 300 300 297 298
Height
3110 3113 3115 3120 3123 3128 3131 3132 3135 3136 3139 3141 3142 3136 3140 3146 3146 3148 3149 3150 3149 3149 3149 3148 3148 3148 3147 3146 3145 3144 3144 3143 3143 3142 3141 3140 3141 3141 3141 3142 3142 3143 3143
3105 3108 3110 3115 3118 3121 3124 3126 3128 3130 3131 3132 3134 3130 3129 3136 3139 3143 3144 3146 3147 3146 3146 3145 3144 3144 3143 3142 3142 3142 3140 3140 3139 3138 3138 3137 3136 3137 3137 3137 3137 3137 3137
3099 3103 3106 3109 3111 3115 3117 3119 3120 3121 3124 3125 3126 3126 3126 3134 3136 3139 3141 3142 3143 3142 3142 3142 3140 3138 3138 3138 3139 3138 3138 3137 3136 3135 3135 3134 3134 3133 3133 3132 3132 3132 3131
3091 3095 3101 3103 3105 3108 3109 3111 3111 3112 3116 3119 3120 3123 3125 3128 3131 3134 3137 3138 3139 3138 3138 3137 3136 3134 3133 3133 3134 3134 3134 3133 3132 3131 3130 3129 3129 3128 3128 3127 3127 3126 3126
3086 3090 3093 3096 3098 3101 3101 3105 3104 3106 3107 3110 3113 3117 3120 3123 3125 3128 3132 3133 3134 3133 3133 3132 3131 3131 3130 3130 3130 3130 3129 3129 3128 3126 3125 3124 3124 3123 3122 3122 3120 3120 3120
3079 3082 3085 3090 3091 3093 3096 3097 3099 3100 3102 3104 3111 3114 3115 3118 3121 3124 3126 3126 3128 3128 3129 3128 3128 3127 3126 3126 3125 3125 3124 3124 3123 3122 3121 3121 3119 3119 3117 3117 3115 3115 3114
3072 3075 3079 3082 3084 3086 3089 3091 3093 3093 3096 3098 3102 3108 3112 3114 3117 3119 3120 3120 3120 3122 3124 3125 3123 3122 3122 3122 3121 3120 3120 3119 3119 3119 3118 3117 3115 3115 3113 3112 3111 3110 3109
3066 3067 3070 3075 3077 3078 3080 3083 3085 3086 3091 3094 3097 3102 3105 3107 3110 3111 3114 3115 3114 3116 3117 3118 3120 3118 3117 3118 3117 3117 3117 3116 3116 3115 3114 3113 3112 3111 3110 3109 3108 3107 3105
3058 3060 3061 3068 3069 3070 3072 3076 3079 3081 3086 3091 3094 3095 3097 3100 3104 3106 3108 3109 3111 3113 3113 3114 3114 3113 3116 3114 3114 3114 3113 3112 3112 3112 3110 3109 3109 3108 3107 3107 3106 3104 3103
3051 3052 3053 3059 3060 3062 3065 3069 3072 3075 3079 3083 3089 3088 3089 3094 3098 3100 3102 3104 3105 3107 3108 3109 3109 3109 3110 3111 3111 3110 3109 3109 3108 3107 3107 3106 3105 3105 3103 3102 3101 3100 3099
3043 3045 3046 3050 3053 3054 3058 3061 3064 3066 3073 3075 3081 3082 3086 3087 3091 3094 3097 3099 3100 3102 3103 3104 3105 3103 3106 3107 3105 3105 3105 3104 3104 3103 3103 3102 3101 3100 3099 3099 3098 3097 3096
3032 3037 3038 3042 3046 3046 3050 3053 3058 3060 3065 3068 3072 3075 3079 3080 3085 3088 3091 3093 3094 3096 3096 3098 3099 3098 3100 3102 3101 3100 3100 3100 3100 3099 3099 3097 3097 3096 3095 3094 3093 3093 3092
3021 3027 3028 3032 3036 3038 3041 3045 3049 3052 3057 3061 3064 3068 3073 3074 3078 3080 3084 3085 3087 3090 3091 3092 3092 3094 3095 3096 3096 3096 3096 3096 3095 3095 3094 3093 3093 3092 3091 3090 3089 3089 3089
3009 3016 3019 3022 3026 3029 3032 3035 3039 3045 3048 3052 3057 3061 3066 3068 3070 3070 3077 3079 3080 3083 3085 3086 3087 3088 3089 3092 3091 3092 3092 3092 3091 3091 3090 3088 3088 3087 3087 3087 3086 3086 3085
2995 3001 3006 3011 3014 3018 3021 3026 3029 3035 3040 3045 3049 3053 3059 3062 3065 3063 3068 3072 3074 3076 3078 3081 3082 3084 3084 3086 3088 3090 3087 3088 3087 3086 3086 3085 3084 3083 3083 3082 3082 3082 3081
2982 2987 2996 2993 2998 3001 3008 3014 3019 3024 3030 3036 3041 3045 3051 3057 3059 3060 3063 3066 3068 3069 3072 3076 3077 3079 3080 3080 3082 3084 3084 3083 3082 3081 3081 3080 3080 3079 3079 3079 3078 3078 3077
2970 2976 2981 2980 2980 2980 2992 3001 3010 3013 3020 3026 3033 3039 3042 3048 3050 3056 3059 3061 3061 3062 3068 3072 3072 3073 3076 3076 3077 3076 3078 3079 3078 3078 3077 3076 3076 3076 3075 3075 3074 3073 3072
2959 2961 2966 2970 2969 2977 2975 2987 2996 3004 3010 3015 3024 3029 3031 3038 3045 3051 3052 3056 3054 3055 3063 3066 3067 3068 3071 3072 3072 3073 3071 3076 3073 3073 3073 3073 3069 3070 3071 3070 3069 3068 3066
2947 2949 2956 2957 2961 2970 2966 2971 2986 2995 3001 3005 3014 3021 3027 3031 3040 3044 3049 3048 3049 3053 3057 3059 3062 3064 3066 3067 3067 3068 3066 3066 3068 3068 3067 3068 3069 3064 3065 3065 3064 3062 3060
2937 2940 2942 2947 2949 2954 2961 2969 2979 2984 2996 3001 3006 3013 3020 3026 3035 3041 3041 3043 3045 3050 3053 3054 3057 3060 3061 3062 3062 3063 3063 3061 3063 3063 3062 3062 3062 3061 3060 3059 3058 3057 3055
2923 2927 2934 2939 2942 2946 2954 2964 2975 2980 2989 2996 3001 3009 3016 3022 3029 3031 3035 3038 3041 3044 3047 3049 3052 3054 3055 3057 3058 3058 3058 3056 3057 3057 3057 3056 3056 3057 3056 3054 3053 3052 3050
2911 2916 2922 2929 2934 2940 2951 2958 2970 2971 2983 2988 2994 3005 3012 3019 3023 3028 3031 3034 3036 3038 3040 3043 3047 3049 3051 3052 3053 3053 3054 3054 3053 3051 3050 3051 3049 3050 3049 3048 3047 3046 3045
2901 2908 2915 2922 2927 2934 2944 2951 2960 2970 2977 2983 2994 3002 3008 3014 3019 3023 3026 3027 3029 3032 3034 3038 3042 3043 3046 3046 3048 3048 3048 3047 3050 3048 3045 3045 3044 3044 3044 3043 3041 3039 3038
2896 2903 2910 2916 2925 2932 2942 2951 2959 2967 2973 2983 2992 2998 3004 3010 3015 3018 3019 3023 3025 3027 3031 3035 3038 3040 3041 3041 3042 3042 3042 3041 3044 3044 3040 3039 3039 3039 3037 3038 3035 3034 3032
2891 2900 2907 2914 2922 2930 2939 2947 2955 2962 2971 2980 2987 2994 3000 3005 3008 3011 3015 3017 3019 3022 3026 3029 3032 3033 3035 3034 3035 3036 3036 3035 3036 3040 3035 3032 3033 3032 3030 3029 3029 3027 3025
2893 2900 2906 2915 2922 2929 2936 2945 2953 2961 2969 2975 2983 2988 2993 2996 3001 3005 3009 3012 3015 3018 3021 3023 3025 3027 3029 3028 3030 3030 3030 3030 3030 3033 3031 3029 3026 3027 3025 3023 3021 3020 3018